Location: Champignolles
(47.0543°N, 4.5663°E)
Time: 15:13:09
(UTC+00:00)

Lacrosse 5 rocket - Pass Details

Date: 30 November 2020
Orbit: 462 x 633 km, 57.0° (Epoch: 27 January)

Event Time Altitude Azimuth Distance (km) Brightness Sun altitude
Rises 16:47:09 0° 230° (SW) 2,540 6.4 -8.8°
Reaches altitude 10° 16:49:19 10° 230° (SW) 1,644 5.1 -9.1°
Maximum altitude 16:53:00 88° 144° (SE) 473 1.0 -9.7°
Enters shadow 16:56:04 14° 52° (NE) 1,396 2.8 -10.2°
